Theta_e
290 291 293 294 296 297 298 300 302 301 299 301 299 299 299 300 304 302 300 300 300 299 300 301 298 300 299 300 301 303 305 307 307 287 288 288 287 288 289 291 293 294 295
288 289 290 292 293 294 295 297 298 295 296 298 296 295 296 298 300 297 296 296 296 295 295 295 295 296 295 296 297 296 296 297 295 286 285 285 285 285 286 286 287 289 291
286 287 288 288 289 290 291 293 294 293 293 293 293 292 292 293 293 293 291 290 290 290 291 291 293 293 292 293 293 292 292 292 292 289 284 285 285 285 285 285 285 285 286
285 285 285 285 287 288 289 291 291 292 291 290 290 290 291 291 291 290 289 287 287 287 288 288 289 290 292 292 291 291 292 289 288 286 285 284 284 285 285 284 283 285 284
284 283 284 284 286 286 286 287 288 288 287 287 287 287 288 288 288 288 287 286 286 285 285 285 286 286 287 290 291 292 291 289 287 286 285 285 284 285 285 285 283 283 281
282 282 283 284 284 285 285 285 286 286 286 285 285 285 285 285 287 287 285 283 283 282 282 282 283 284 286 287 288 289 290 290 288 287 286 285 284 285 285 285 282 282 280
281 281 282 283 283 283 284 284 284 284 284 284 284 284 284 284 286 286 285 283 282 282 282 282 281 282 283 283 285 285 284 286 288 287 285 283 281 282 283 282 281 282 280
281 281 282 282 282 282 282 282 283 283 283 283 283 283 284 284 286 286 285 283 283 283 283 282 282 282 283 282 282 282 282 282 282 281 281 280 280 281 281 281 281 279 278
278 279 281 281 281 281 281 281 282 282 283 283 283 283 283 284 286 286 284 283 282 282 282 282 282 282 284 284 281 280 279 280 284 284 284 284 284 283 282 282 279 279 276
278 278 280 282 282 281 282 282 282 283 283 283 283 283 284 284 286 286 284 283 282 282 283 283 283 282 283 283 281 280 278 278 279 279 279 280 280 280 280 279 278 278 277
278 279 279 280 281 282 282 283 283 283 283 282 283 284 284 284 284 285 285 283 282 282 282 282 282 284 284 283 282 279 279 279 279 278 278 278 278 277 277 277 277 276 276
277 278 279 280 281 282 282 283 283 282 281 281 281 281 282 283 284 285 285 285 285 282 281 282 282 282 282 281 280 281 281 280 278 278 277 276 275 274 275 274 273 274 274
275 277 279 280 280 281 282 282 282 283 281 280 280 279 280 282 283 284 284 284 284 282 282 282 282 280 279 278 278 278 275 276 276 275 275 274 274 273 273 275 273 270 269
274 276 278 280 280 280 281 281 281 281 280 279 279 278 278 279 279 282 282 283 282 283 282 280 279 278 277 275 274 274 273 272 272 272 272 273 274 273 273 271 271 270 269
273 275 277 279 280 279 280 280 279 279 280 278 277 277 276 275 276 279 279 279 279 282 280 279 277 276 274 273 272 271 270 271 270 270 270 270 270 270 270 268 268 268 267
274 274 275 278 279 279 278 277 280 279 279 279 279 278 277 277 277 278 278 277 277 278 278 276 273 272 270 270 269 269 268 267 267 268 268 267 267 267 266 267 267 265 264
272 272 274 275 277 278 278 277 275 276 277 277 277 276 276 275 276 276 276 275 275 276 273 271 270 269 268 268 267 267 266 265 264 266 266 265 265 265 264 265 265 264 264
269 266 273 274 275 276 277 277 277 276 274 271 272 274 274 274 274 274 273 272 268 268 268 267 266 267 266 266 265 265 265 265 264 264 264 262 261 262 262 262 262 259 260
271 271 271 273 273 273 275 275 274 272 270 270 269 269 267 270 271 271 271 267 265 265 265 264 264 264 264 264 263 262 261 262 260 260 261 260 260 259 259 259 260 257 257
268 266 266 272 272 273 273 272 271 270 270 269 268 266 267 267 266 264 265 265 264 263 263 263 262 262 261 261 261 261 261 261 260 260 260 260 260 259 258 257 258 258 258
270 270 263 271 271 271 271 271 270 269 268 268 268 268 267 265 264 263 263 262 262 262 262 262 261 261 260 260 260 260 259 260 260 259 259 259 259 258 258 259 258 258 258
269 269 269 269 268 268 269 269 269 268 267 266 266 266 265 264 264 263 262 261 260 260 259 259 260 260 259 259 259 259 258 258 258 258 258 257 257 258 258 258 258 259 259
268 268 267 267 267 262 266 267 267 267 266 266 265 264 263 263 262 262 261 260 259 259 259 258 258 257 258 257 257 257 257 257 258 257 256 255 255 257 256 257 257 256 257
268 268 268 267 266 266 266 265 264 262 264 264 264 263 263 262 261 260 259 259 259 259 258 257 256 256 256 256 257 258 258 257 256 256 256 256 256 256 256 256 257 257 258
267 267 267 266 265 265 263 264 264 264 263 263 263 262 262 260 259 260 260 258 256 257 256 256 256 256 256 256 256 256 257 260 258 258 256 255 255 254 256 256 256 257 256
266 266 266 265 264 264 264 264 263 263 262 262 262 261 260 259 259 259 258 257 256 256 256 257 258 257 257 258 257 258 258 261 259 257 256 256 256 257 257 257 255 256 256
Wind_Speed
10 9 8 7 7 8 7 6 3 3 5 5 6 6 5 5 3 7 7 7 7 6 5 6 5 3 3 3 1 1 1 2 5 2 2 3 4 5 8 8 8 9 10
11 9 8 8 7 6 5 3 3 4 5 5 6 10 6 2 3 9 10 8 9 9 8 9 7 5 5 4 2 2 2 1 4 5 2 2 5 5 7 9 7 7 7
9 7 7 6 5 5 4 3 1 10 4 3 8 9 3 4 10 11 11 12 10 10 11 10 8 7 7 5 6 4 4 4 3 4 5 2 3 3 7 7 7 8 7
8 7 7 6 4 4 4 5 6 11 5 8 13 11 5 6 10 13 13 13 14 12 11 11 11 8 5 7 5 7 6 7 8 7 7 5 3 4 4 5 5 4 3
7 7 7 5 5 5 5 7 11 9 9 8 14 9 3 11 6 15 13 13 13 12 10 13 13 12 18 14 6 7 8 8 7 7 5 5 4 3 3 2 4 4 2
9 9 8 7 8 8 8 12 10 11 11 11 13 5 12 9 24 20 14 11 11 11 10 10 9 11 16 21 21 24 13 6 7 7 7 6 4 4 3 4 4 2 2
9 10 9 10 11 10 12 10 11 12 14 14 10 9 13 18 23 21 16 10 13 12 10 8 8 7 9 10 18 21 21 22 16 6 8 4 4 2 2 3 2 2 2
12 13 12 12 13 13 12 10 8 9 15 12 11 13 17 15 21 19 15 11 13 12 11 9 9 9 9 8 11 14 14 14 11 8 9 7 7 4 4 2 2 5 4
14 14 13 14 14 13 13 11 9 13 14 12 11 14 15 12 16 15 13 10 12 13 11 9 9 9 11 12 9 11 10 9 15 19 18 18 17 14 6 1 2 2 2
15 14 14 14 12 13 10 8 8 10 13 10 14 14 13 12 17 15 11 6 11 9 9 10 18 12 15 14 7 7 8 6 5 6 6 10 11 12 16 9 3 2 2
10 11 10 9 9 8 7 7 8 10 10 12 14 12 14 13 14 17 16 7 7 7 6 7 9 17 18 19 15 8 7 6 7 5 5 5 6 7 6 7 7 5 2
9 9 8 8 7 6 8 7 9 9 12 12 11 11 9 10 14 16 18 15 11 8 7 6 8 16 17 17 12 14 12 7 3 4 5 5 5 5 5 5 5 5 5
6 7 8 7 7 7 7 7 6 7 6 6 7 8 7 6 7 16 14 11 11 7 6 11 13 13 13 12 15 13 9 5 4 4 5 4 4 2 2 2 3 3 4
5 7 7 7 7 7 7 6 5 6 6 6 5 6 6 7 8 5 3 3 5 6 9 6 10 11 12 8 6 7 5 5 5 5 4 3 2 3 4 3 2 2 2
5 5 5 4 7 8 8 7 8 10 9 6 6 5 3 3 2 4 5 4 5 4 6 3 3 4 4 3 4 5 5 5 5 4 4 3 3 3 3 2 3 3 2
3 4 4 3 3 4 4 6 13 12 13 12 11 6 4 7 8 6 8 9 4 2 2 3 3 3 4 3 3 3 4 5 4 3 3 3 3 3 3 1 1 1 2
3 3 2 1 2 2 2 3 4 6 12 12 11 10 11 11 9 9 8 11 7 4 5 4 4 4 4 4 3 4 4 3 2 3 3 3 3 2 2 2 2 1 2
1 1 0 0 0 1 1 1 1 1 1 3 8 8 10 12 12 8 6 5 5 7 5 4 4 4 3 4 4 4 3 2 3 2 2 2 1 1 2 2 2 1 2
1 1 1 1 1 1 0 1 1 2 3 2 3 4 7 8 10 12 12 5 5 5 4 4 4 4 4 3 3 2 2 2 3 2 2 1 1 1 2 2 2 1 0
2 1 2 1 2 2 1 3 3 3 3 3 3 3 1 1 4 5 5 5 4 4 3 3 2 2 2 2 2 2 2 1 0 1 1 1 2 1 2 2 2 2 2
1 2 1 1 0 0 0 2 2 2 3 3 4 4 5 3 3 3 3 3 3 2 2 2 1 1 1 0 1 1 1 2 1 2 2 2 2 2 3 3 3 3 3
2 1 0 0 0 1 1 1 2 2 3 3 3 4 4 2 2 2 2 2 2 1 1 1 2 1 1 1 1 2 2 3 3 3 3 3 3 3 3 3 3 4 4
3 3 3 2 2 3 2 1 2 2 2 2 2 2 1 1 1 1 1 1 0 1 1 1 2 2 2 2 2 3 3 3 3 2 3 3 3 3 3 4 4 4 4
4 4 3 3 2 2 2 2 2 2 1 2 1 1 0 1 1 1 1 1 1 2 2 3 3 4 3 3 3 4 4 4 3 4 6 5 5 5 5 5 6 7 7
4 3 3 3 3 2 2 2 2 2 2 1 1 1 1 1 1 2 2 2 3 3 3 3 3 5 7 8 8 8 8 12 8 7 4 6 8 8 7 6 7 7 7
4 3 3 2 2 2 2 2 2 2 1 1 1 0 1 1 2 2 2 2 2 3 4 4 6 9 9 8 9 11 11 13 11 11 8 8 9 9 8 10 10 8 9
Wind_Direction
341 342 339 333 317 297 293 297 334 41 43 308 55 91 13 354 116 97 84 80 86 83 65 91 84 107 110 85 35 72 149 201 216 91 78 43 44 64 60 61 62 73 76
341 338 333 325 325 310 299 324 352 59 55 307 78 70 40 359 94 86 86 71 84 81 86 70 61 51 41 58 38 83 108 74 125 126 126 77 63 33 69 68 58 55 65
344 346 345 349 347 334 345 3 297 81 59 39 60 71 60 49 76 85 80 81 78 70 69 79 74 89 78 78 77 35 47 54 35 132 122 115 104 69 75 61 61 63 51
354 0 9 6 5 20 23 56 69 83 69 63 55 50 352 88 86 88 86 80 74 66 66 71 65 47 71 88 71 82 76 83 77 81 90 90 89 77 84 112 89 62 75
7 16 19 16 22 42 44 63 68 78 71 74 75 67 36 71 86 87 89 90 90 87 74 70 68 67 64 63 74 77 92 87 98 101 83 98 106 125 122 116 100 118 86
22 24 22 34 46 54 55 57 65 72 77 79 70 104 87 86 75 82 85 87 84 77 71 66 66 67 63 68 68 64 55 88 103 111 115 112 90 98 124 116 121 139 124
32 32 35 41 56 51 50 63 74 84 73 66 73 73 77 69 75 74 71 80 83 77 72 69 67 52 59 63 66 64 55 55 52 77 105 94 109 98 129 117 130 114 99
32 33 33 47 50 54 56 56 70 99 91 82 68 65 70 66 70 77 76 74 75 73 65 56 66 65 59 70 73 68 58 53 48 58 69 60 65 63 69 62 104 96 84
21 28 28 37 44 47 53 44 48 63 72 71 71 74 73 74 74 73 74 71 75 64 58 53 64 57 69 78 82 86 81 69 69 77 76 74 71 66 61 109 88 142 129
8 12 22 25 36 40 38 36 45 59 68 73 70 64 73 74 63 67 70 76 76 76 64 67 66 67 62 65 66 72 86 75 78 75 71 58 54 52 49 47 13 56 97
7 18 22 25 42 37 38 46 52 63 71 69 68 60 60 60 56 59 63 66 74 81 79 67 64 66 62 65 69 67 72 82 74 75 73 66 54 53 44 39 31 33 23
12 17 24 29 38 34 42 46 59 66 70 72 79 78 60 56 64 62 63 68 83 96 82 81 81 76 70 66 60 63 65 63 62 69 67 52 51 45 41 41 36 51 45
15 26 26 44 45 37 44 42 58 67 85 91 73 70 66 54 52 49 58 71 84 94 101 95 86 79 73 61 60 57 46 32 42 65 67 62 46 46 13 33 126 105 79
31 38 20 34 47 56 55 45 50 65 66 59 62 60 55 41 27 10 59 41 82 99 98 83 88 84 78 70 48 46 50 45 45 50 53 57 40 31 57 14 359 17 312
9 22 26 35 62 67 54 50 48 39 44 50 52 53 84 87 2 348 43 31 11 81 111 111 77 65 70 63 74 51 38 38 46 41 36 30 39 21 53 25 31 321 319
46 43 23 43 66 90 106 87 75 82 78 80 80 91 82 39 17 31 62 20 355 330 75 116 99 81 71 61 52 72 56 52 28 30 45 37 33 31 6 27 359 18 349
30 33 80 58 103 113 117 121 115 75 62 58 53 56 45 32 19 43 61 44 58 80 90 75 78 70 68 60 53 46 54 47 328 34 37 31 12 16 330 356 353 340 351
236 268 286 74 188 194 198 174 223 249 161 79 48 46 51 45 43 55 63 65 53 47 58 73 78 73 62 62 53 43 47 42 54 24 49 49 24 335 334 15 0 31 353
264 84 322 324 0 358 103 107 109 101 92 92 137 88 21 49 52 50 57 65 74 72 69 68 58 52 52 47 45 42 23 26 17 351 359 5 348 341 332 343 310 201 236
166 140 284 224 190 186 163 146 137 128 117 96 75 57 47 250 59 47 45 54 66 71 69 80 70 58 56 30 21 22 331 242 264 280 300 304 290 283 284 270 256 265 255
177 158 335 244 162 29 59 97 103 111 104 92 87 88 76 78 80 72 71 56 47 47 39 33 47 44 31 325 295 287 277 304 299 266 264 264 250 249 243 239 246 238 228
209 143 165 18 79 108 88 102 116 116 120 119 95 68 59 65 74 70 73 71 62 30 16 351 317 312 323 285 281 272 247 243 251 235 238 231 231 244 238 246 250 253 250
194 182 179 165 126 137 150 132 147 143 135 121 136 151 170 83 58 31 49 57 93 266 213 248 256 259 250 215 226 228 240 239 235 234 236 237 235 237 222 234 231 232 235
193 194 180 160 162 160 146 148 118 69 124 143 148 119 77 78 21 48 265 259 262 252 225 212 222 239 245 240 237 230 230 233 227 230 222 232 244 247 239 238 239 244 250
189 179 169 164 161 165 139 158 153 146 156 159 168 196 111 179 230 238 227 209 221 241 243 235 233 240 247 246 243 242 249 261 250 242 232 227 237 239 244 247 249 254 253
169 173 171 150 153 158 178 172 176 176 181 188 173 224 255 253 250 249 240 237 246 249 259 251 248 247 252 255 252 250 247 252 248 237 229 233 239 242 240 240 241 245 249